RH
46 44 44 44 42 38 36 41 47 46 44 39 33 32 34 32 30 30 26 26 28 27 25 27 30 32 35 38 39 37 36 35 37 42 48 53 56 55 53 54 55 57 62 65 65 66 66 66 70 72 73 77 79 75 67 59 54 51 50 52 53 51 50
45 45 47 45 41 39 37 38 44 48 45 39 34 34 35 32 29 27 26 26 29 31 31 31 29 29 31 31 31 32 33 34 37 42 47 51 53 52 52 54 55 59 63 66 67 67 64 65 68 71 76 82 79 68 57 49 45 43 42 44 46 48 49
47 47 47 44 40 40 40 39 45 51 50 45 38 34 35 34 28 27 30 29 27 30 34 32 27 27 27 28 28 29 31 33 36 40 43 47 50 49 52 55 55 59 64 65 66 66 64 65 65 65 67 69 62 50 41 37 35 35 34 34 34 36 37
47 47 46 43 41 41 42 46 51 53 53 50 44 38 37 36 31 29 31 30 25 27 31 29 27 27 26 27 28 28 31 34 33 36 40 44 46 45 46 50 50 53 58 60 61 62 63 62 57 53 49 43 37 31 28 28 28 27 27 26 26 26 27
46 47 47 43 42 44 44 48 51 53 53 49 47 47 41 38 35 31 30 32 28 26 28 29 27 25 23 25 27 30 36 36 32 34 37 38 41 43 44 46 48 50 52 55 58 57 55 51 46 42 34 25 23 23 23 23 23 23 23 23 23 24 25
48 49 48 42 41 46 47 47 51 57 59 54 52 51 44 38 36 31 31 36 34 28 26 26 23 22 23 25 28 34 39 39 37 39 39 38 41 45 46 46 47 47 46 45 45 44 40 37 35 32 24 20 21 21 22 23 22 22 22 22 22 23 23
50 48 46 41 42 49 52 54 57 64 68 61 51 46 41 35 31 29 33 35 30 24 21 21 20 21 25 29 32 34 35 36 38 41 41 40 39 40 38 36 35 34 30 27 26 26 25 25 25 23 20 20 20 20 20 20 20 21 20 20 20 19 19
51 48 49 49 51 54 57 60 61 64 68 61 46 40 37 33 28 26 28 25 20 17 15 16 19 20 25 32 30 24 21 21 23 27 29 28 25 23 22 21 20 18 16 16 16 17 18 18 19 18 18 19 19 18 17 18 18 19 19 18 17 16 15
57 54 57 59 57 57 58 61 58 57 60 54 42 39 37 31 27 26 25 19 14 14 13 13 18 19 21 25 20 13 12 13 13 14 15 15 14 12 12 12 12 11 11 12 14 13 14 16 17 17 17 18 20 20 19 19 19 20 20 18 17 16 15
61 60 63 63 61 59 57 58 56 53 52 46 38 38 36 31 28 27 25 20 14 14 13 12 14 14 15 16 13 10 11 11 11 11 11 10 10 10 10 10 12 12 12 13 13 12 12 16 18 19 19 19 22 23 23 24 24 24 23 22 21 21 20
64 64 64 63 63 61 55 51 51 50 47 41 37 38 34 30 28 28 28 23 15 13 13 13 13 13 13 13 11 11 10 10 10 10 10 11 11 12 14 16 18 20 19 20 20 19 20 22 24 24 23 24 25 26 27 27 29 31 29 27 26 25 24
55 57 58 57 59 59 52 46 47 49 46 39 39 38 33 29 27 28 30 24 16 15 15 16 17 17 18 18 17 17 17 17 17 16 17 18 20 22 23 25 28 29 28 29 30 30 31 32 32 31 31 31 31 31 32 32 33 36 36 33 31 30 29
45 50 53 54 57 55 48 44 45 48 45 39 38 35 30 29 29 29 32 26 19 18 20 21 23 24 26 27 28 29 27 27 26 25 26 27 28 30 31 32 33 33 34 36 36 36 37 38 38 39 39 39 39 39 39 40 40 41 41 39 37 36 35
46 49 53 55 55 53 49 47 46 46 44 41 38 33 29 30 31 34 35 29 24 25 27 28 31 33 34 33 33 34 33 33 33 31 31 32 33 34 35 35 35 35 36 38 38 38 39 40 41 43 44 43 43 43 42 43 43 42 41 39 38 37 37
45 47 49 50 50 49 49 48 44 41 41 42 39 33 29 30 33 36 37 33 31 31 32 35 37 38 38 37 37 37 37 39 39 36 35 37 36 36 37 37 36 36 37 39 41 43 42 42 43 44 45 45 44 44 43 41 40 40 39 38 37 36 36
45 43 41 42 45 47 48 46 42 39 39 41 41 35 30 30 33 37 39 38 38 38 38 40 41 42 42 41 40 40 40 42 42 40 42 43 42 40 41 41 40 40 42 43 46 48 47 48 48 48 48 46 44 44 42 40 40 41 41 40 38 36 36
47 44 39 40 44 47 48 46 43 43 42 40 40 39 34 32 34 37 40 42 42 42 42 42 43 45 47 46 45 44 44 43 43 45 48 49 48 47 47 48 47 47 48 50 51 52 53 54 55 56 55 53 51 49 46 43 42 42 42 41 40 38 37
48 45 42 43 46 47 49 49 46 47 47 42 39 40 39 38 37 38 40 43 45 45 45 46 46 48 49 50 49 48 48 48 47 47 49 50 52 54 56 59 58 56 57 58 59 60 60 60 62 65 65 63 61 59 56 51 48 46 45 45 45 43 43
51 48 46 48 48 46 48 51 48 45 45 42 39 38 39 40 38 38 40 43 46 47 49 49 50 50 52 53 53 52 52 52 52 52 52 54 56 59 62 66 67 66 66 66 68 69 68 68 71 73 72 70 67 66 64 59 55 53 51 51 50 50 49
54 53 52 51 48 46 48 52 50 45 41 40 39 39 41 43 43 43 43 42 44 48 53 55 55 56 57 57 57 57 56 56 58 59 61 64 66 67 68 70 72 72 71 71 74 75 74 74 75 75 74 72 68 66 65 63 62 61 58 54 52 52 51
55 56 55 54 51 48 50 54 55 51 45 41 40 41 42 44 45 48 49 47 46 49 52 55 57 61 64 65 63 62 62 62 64 67 70 72 73 73 74 75 75 75 75 74 74 75 75 76 76 74 74 72 69 68 67 66 65 62 58 54 51 52 52
55 54 53 55 55 53 52 55 59 60 55 49 46 45 45 44 43 45 48 51 52 53 54 56 60 64 68 70 70 69 68 68 71 74 78 78 77 77 77 78 79 78 76 73 70 70 72 74 74 74 74 72 71 71 70 66 61 55 52 52 51 51 50
52 52 51 52 53 54 54 56 58 62 62 61 57 54 52 50 46 45 47 49 53 56 60 63 66 69 71 71 73 75 75 75 77 80 81 81 80 79 80 81 82 80 76 71 68 69 72 74 74 74 72 69 67 65 63 60 54 49 49 49 49 49 48
50 49 49 50 52 54 55 55 55 56 59 61 60 57 55 54 52 49 49 49 50 54 60 63 66 70 74 74 74 76 78 79 82 83 84 83 81 80 82 84 84 80 73 70 70 70 71 71 68 64 59 55 53 50 50 48 43 42 43 42 42 43 43
49 47 46 47 49 52 54 55 55 53 54 56 57 56 55 55 55 54 53 53 55 58 61 62 66 72 77 76 75 77 81 84 86 88 87 85 82 83 85 87 85 79 72 68 67 65 62 61 58 53 49 47 45 43 42 40 37 37 37 36 36 36 36
49 49 48 46 45 47 49 51 52 53 54 57 59 60 60 58 58 58 58 58 61 63 62 61 65 71 75 75 73 75 81 85 85 87 89 86 84 85 87 85 83 78 70 64 60 56 55 55 53 49 46 46 44 41 39 38 37 36 35 35 35 33 33
49 50 50 49 47 46 46 49 51 52 54 58 61 62 62 62 61 61 61 62 63 64 62 63 68 71 74 75 69 69 77 82 82 85 89 86 81 81 80 77 75 70 62 56 55 54 52 50 49 46 44 43 41 38 37 36 34 34 34 34 33 33 33
43 45 47 48 48 46 46 47 50 52 54 57 58 58 58 59 58 57 58 61 63 63 62 62 64 66 70 72 66 62 70 79 84 88 87 81 76 73 69 65 62 60 55 52 52 51 48 48 47 45 43 41 39 37 36 35 34 34 34 34 33 34 35
41 43 45 47 48 48 48 49 50 52 55 58 59 57 55 54 54 54 55 57 61 63 62 59 59 60 64 67 65 65 71 79 84 86 82 78 75 69 61 57 55 53 50 48 47 47 48 49 47 43 42 41 39 38 37 35 35 35 35 35 35 35 36
45 45 45 47 49 49 49 49 50 51 52 56 59 59 57 55 56 58 58 59 61 62 61 60 60 61 65 67 68 70 75 77 80 81 79 75 69 62 56 54 52 47 44 43 44 46 47 48 47 44 43 42 40 40 39 38 38 38 37 37 36 36 36
46 45 44 47 50 51 50 50 50 50 51 54 55 56 57 60 62 63 63 64 66 65 63 62 62 65 69 72 73 74 76 75 75 75 72 65 58 55 53 51 48 46 44 44 45 44 44 46 48 47 46 45 44 44 43 42 40 40 38 38 37 36 36
46 44 43 44 45 49 52 53 53 53 55 57 56 54 57 63 68 70 71 72 72 69 65 63 65 70 74 75 74 76 77 73 67 63 61 57 53 52 51 50 48 47 47 47 47 46 47 49 51 50 50 50 50 49 46 43 41 39 39 38 37 36 34
45 43 43 42 40 42 45 48 49 50 55 61 60 58 63 70 74 77 79 81 80 74 68 67 69 72 75 75 72 71 71 66 59 55 54 53 51 49 48 49 50 50 50 50 51 53 54 54 54 53 53 54 53 50 45 41 39 39 38 37 36 33 31
43 42 41 40 40 41 41 43 45 45 49 55 56 56 67 78 80 77 77 81 83 77 70 70 71 71 71 71 66 62 62 60 57 56 54 52 51 50 48 49 52 54 55 57 58 60 60 59 58 57 57 56 52 47 42 39 37 37 36 36 34 32 31
42 42 41 40 41 43 44 45 45 44 47 49 46 47 60 75 80 78 75 75 77 75 71 71 70 68 66 65 62 59 60 60 60 58 58 56 54 52 50 52 56 59 60 63 65 65 64 63 61 59 56 52 47 43 41 39 37 37 37 36 33 31 32
38 41 42 41 42 44 47 49 49 49 50 50 47 46 52 62 70 76 77 74 71 69 69 68 67 64 62 61 61 60 59 61 63 63 62 61 58 56 56 58 62 64 66 68 67 66 64 62 58 54 50 47 45 42 41 40 40 39 37 33 31 32 32
37 40 43 45 45 47 49 51 52 53 53 54 54 55 56 58 61 65 68 69 68 67 65 63 61 61 60 59 60 61 61 62 66 66 65 62 60 60 60 61 63 66 67 67 66 64 62 58 54 50 46 44 44 42 42 42 42 39 35 33 32 32 31